Probability
0 0 0 0 0 0 0 0 0 0 0 0 0 0 0 0 0 0 0 0 0 0 0 0 0 0 0 0 0 0 0 0 1 1 0 0 1 0 0 0 0 0 0
0 0 0 0 0 0 0 0 0 0 0 0 0 0 0 0 0 0 0 0 0 0 0 0 0 0 0 0 0 0 0 0 1 2 1 1 1 0 0 0 0 0 0
0 0 0 0 0 0 0 0 0 0 0 0 0 0 0 0 0 0 0 0 0 0 0 0 0 0 0 0 0 0 0 0 1 2 1 1 0 0 0 0 0 0 0
0 0 0 0 0 0 0 0 0 0 0 0 0 0 0 0 0 0 0 0 0 0 0 0 0 0 0 0 0 0 0 0 0 1 1 0 0 0 0 0 0 0 0
0 0 0 0 0 0 0 0 0 0 0 0 0 0 0 0 0 0 0 0 0 0 0 0 0 0 0 0 0 0 0 0 0 0 0 0 0 0 0 0 0 0 0
0 0 0 0 0 0 0 0 0 0 0 0 0 0 0 0 0 0 0 0 0 0 0 0 0 0 0 0 0 0 0 0 0 0 0 0 0 0 0 0 0 0 0
0 0 0 0 0 0 0 0 0 0 0 0 0 0 0 0 0 0 0 0 0 0 0 0 0 0 0 0 0 0 0 0 0 0 0 0 0 0 0 0 0 0 0
0 0 0 0 0 0 0 0 0 0 0 0 0 0 0 0 0 0 0 0 0 0 0 0 0 0 0 0 0 0 0 0 0 0 0 0 0 0 0 0 0 0 0
0 0 0 0 0 0 0 0 0 0 0 0 0 0 0 0 0 0 0 0 0 0 0 0 0 0 0 0 0 0 0 0 0 0 0 0 0 0 0 0 0 0 0
0 0 0 0 0 0 0 0 0 0 0 0 0 0 0 0 0 0 0 0 0 0 0 0 0 0 0 0 0 0 0 0 0 0 0 0 0 0 0 0 0 0 0
0 0 0 0 0 0 0 0 0 0 0 0 0 0 0 0 0 0 0 0 0 0 0 0 0 0 0 0 0 0 0 0 0 0 0 0 0 0 0 0 0 0 0
0 0 0 0 0 0 0 0 0 0 0 0 0 0 0 0 0 0 0 0 0 0 0 0 0 0 0 0 0 0 0 0 0 0 0 0 0 0 0 0 0 0 0
1 0 0 0 0 0 0 0 0 0 0 0 0 0 0 0 0 0 0 0 0 0 0 0 0 0 0 0 0 0 0 0 0 0 0 0 0 0 0 0 0 0 0
3 3 2 1 0 0 0 0 0 0 0 0 0 0 0 0 0 0 0 0 0 0 0 0 0 0 0 0 0 0 0 0 0 0 0 0 0 0 0 0 0 0 0
5 6 7 6 3 2 2 1 0 0 0 0 0 0 0 0 0 0 0 0 0 0 0 0 0 0 0 0 0 0 0 0 0 0 0 0 0 0 0 0 0 0 0
3 7 13 15 14 13 12 9 5 2 1 0 0 0 0 0 0 0 0 0 0 0 0 0 0 0 0 0 0 0 0 0 0 0 0 0 0 0 0 0 0 0 0
3 6 15 23 27 31 31 26 17 9 3 1 0 0 0 0 0 0 0 0 0 0 0 0 0 0 0 0 0 0 0 0 0 0 0 0 0 0 0 0 0 0 0
6 10 16 22 29 38 45 44 37 25 14 6 2 0 0 0 0 0 0 0 0 0 0 0 0 0 0 0 0 0 0 0 0 0 0 0 0 0 0 0 0 0 0
9 13 16 18 22 31 42 49 49 42 30 15 5 0 0 0 0 0 0 0 0 0 0 0 0 0 0 0 0 0 0 0 0 0 0 0 0 0 0 0 0 0 0
8 12 15 16 17 23 34 46 52 51 41 26 12 3 0 0 0 0 0 0 0 0 0 0 0 0 0 0 0 0 0 0 0 0 0 0 0 0 0 0 0 0 0
6 9 12 15 16 19 29 42 49 51 49 39 24 10 3 0 0 0 0 0 0 0 0 0 0 0 0 0 0 0 0 0 0 0 0 0 0 0 0 0 0 0 0
4 5 7 10 13 15 23 35 45 52 55 52 37 21 9 3 1 0 0 0 0 0 0 0 0 0 0 0 0 0 0 0 0 0 0 0 0 0 0 0 0 0 0
1 1 2 4 7 10 14 24 38 50 57 58 49 33 19 9 2 0 0 0 0 0 0 0 0 0 0 0 0 0 0 0 0 0 0 0 0 0 0 0 0 0 0
0 0 0 1 2 4 7 14 27 40 48 50 46 36 22 12 4 1 0 0 0 0 0 0 0 0 0 0 0 0 0 0 0 0 0 0 0 0 0 0 0 0 0
0 0 0 0 0 1 2 5 14 24 30 30 29 24 16 9 5 3 1 0 0 0 0 0 0 0 0 0 0 0 0 0 0 0 0 0 0 0 0 0 0 0 0
0 0 0 0 0 0 0 1 6 13 17 17 16 14 10 7 5 3 2 1 0 0 0 0 0 0 0 0 0 0 0 0 0 0 0 0 0 0 0 0 0 0 0
Wind_Speed
7 7 13 14 14 14 14 14 14 14 13 12 12 12 12 12 11 11 11 10 10 10 9 9 9 9 9 9 8 8 8 9 9 9 9 10 10 10 10 10 9 5 9
11 10 15 15 15 14 14 14 13 13 13 12 12 12 12 11 11 10 10 10 10 9 9 8 8 8 8 8 8 8 8 8 8 9 9 9 10 11 11 11 9 6 9
14 11 13 15 15 15 14 13 13 12 12 12 12 12 11 11 10 10 9 9 9 8 8 8 7 7 7 8 7 7 7 7 8 8 8 4 6 10 10 10 10 10 9
15 11 11 16 15 14 14 13 13 12 12 12 12 11 10 10 10 9 9 9 8 8 7 7 7 7 7 7 7 6 6 7 7 7 4 3 4 9 10 9 9 9 9
13 10 12 16 15 14 13 13 12 12 12 12 12 11 10 10 9 9 9 8 8 8 7 6 6 6 6 6 6 6 5 6 7 6 4 4 3 7 8 8 8 8 8
13 10 12 16 15 14 13 12 12 12 12 12 12 11 10 10 10 9 9 8 8 7 7 6 5 5 6 6 6 5 4 5 6 4 4 3 2 6 7 7 7 7 7
12 10 11 15 14 13 12 12 12 12 12 12 12 11 10 10 10 9 9 8 8 7 7 6 5 6 6 6 5 4 4 5 5 4 3 3 3 6 6 6 5 5 6
14 12 11 15 15 13 13 12 12 12 13 12 12 11 10 10 10 10 9 8 7 6 6 6 6 6 6 5 5 4 3 3 6 5 3 3 5 6 6 5 4 4 5
13 12 9 9 11 13 13 13 13 13 13 13 12 11 10 10 11 10 9 8 7 6 5 5 6 6 6 5 4 3 2 3 4 3 4 2 5 7 6 4 4 4 4
10 11 10 8 8 7 8 13 13 13 13 13 13 12 11 11 11 11 10 9 8 7 6 5 5 5 4 3 2 1 2 4 3 3 2 3 6 6 6 5 4 3 4
10 9 10 10 9 8 7 10 11 13 13 12 11 13 10 5 6 7 9 10 9 8 6 6 5 5 4 2 2 2 2 2 3 3 2 5 6 6 5 5 4 3 3
13 12 11 11 10 9 9 7 5 6 6 6 5 6 5 4 4 7 9 12 10 9 7 7 6 5 3 1 3 3 1 2 4 3 3 6 6 6 5 5 4 3 2
16 14 13 12 11 11 7 6 5 4 4 6 7 6 5 4 4 4 3 5 6 7 4 4 4 3 2 2 2 1 0 2 3 3 3 7 6 6 6 5 4 3 2
15 16 15 14 12 12 9 7 7 5 5 5 7 8 6 4 4 4 4 4 3 3 3 3 2 4 4 4 4 3 2 2 3 2 3 6 6 6 6 5 4 4 3
11 14 16 16 14 13 10 8 8 7 7 8 7 8 8 6 6 5 4 4 4 3 4 4 4 4 5 5 4 4 5 5 5 4 3 6 6 5 5 6 6 5 4
3 7 10 14 15 13 11 10 9 8 8 7 7 9 10 7 6 6 6 5 5 5 5 5 5 4 4 3 3 5 6 6 5 4 3 4 5 4 4 6 6 6 5
4 2 3 9 11 13 12 12 9 9 8 8 8 9 9 8 8 8 7 7 7 6 5 4 4 3 3 3 4 5 5 5 5 5 4 3 3 4 5 5 6 6 6
8 7 4 2 6 10 10 10 8 9 9 8 7 7 9 10 10 9 8 8 7 6 5 4 3 3 3 3 3 2 3 3 4 4 4 4 3 2 4 5 5 5 6
10 10 8 6 3 4 7 8 7 8 9 8 7 7 8 10 10 8 8 8 7 5 5 5 3 3 3 2 2 2 2 2 3 4 4 5 4 4 3 4 6 5 5
10 10 11 9 8 5 2 4 4 5 6 6 6 7 8 7 8 7 6 7 7 5 4 4 4 3 3 3 2 1 0 1 1 3 4 5 4 5 4 3 3 4 6
11 11 11 11 9 6 3 2 3 5 5 5 5 6 6 6 7 7 6 6 6 6 6 6 4 4 2 2 3 2 2 2 2 2 3 4 5 5 5 4 3 2 3
12 11 10 10 9 8 4 3 3 3 3 3 3 3 4 4 5 6 6 5 5 5 5 5 4 3 2 2 3 2 1 4 3 2 1 3 5 4 5 6 4 4 3
12 12 11 10 10 9 8 3 1 1 1 1 2 2 2 2 3 4 5 5 5 5 5 5 5 5 3 2 2 4 3 4 2 3 2 1 3 4 4 5 6 5 5
11 10 10 10 10 10 9 5 1 3 3 4 4 3 3 2 1 2 4 4 4 4 5 4 4 4 5 3 2 2 3 4 2 1 3 2 1 3 4 4 6 6 6
10 10 9 10 10 10 9 7 3 0 2 3 4 6 4 4 3 2 2 3 3 3 4 4 4 4 3 3 3 2 2 1 2 2 2 3 2 2 2 3 4 5 7
9 9 8 9 9 9 9 9 6 3 3 4 4 5 4 3 3 3 3 3 3 3 3 4 4 4 4 4 3 3 3 3 3 3 4 3 2 3 2 2 3 4 5
Wind_Direction
155 166 151 143 135 130 129 128 126 123 119 115 110 105 102 99 97 94 93 92 90 88 88 89 92 95 96 97 96 95 94 92 88 83 79 76 71 67 68 82 83 80 90
152 157 151 145 138 134 132 130 128 126 123 120 116 112 108 106 104 101 98 95 92 90 88 89 93 100 104 104 103 99 91 87 84 81 77 74 75 73 73 79 81 81 88
148 154 150 147 143 139 136 133 131 128 126 123 120 117 116 114 112 108 105 101 97 93 90 89 92 101 106 108 106 100 90 83 81 82 82 72 74 76 76 77 79 78 84
148 150 152 150 146 143 140 137 136 133 130 128 126 124 123 120 117 116 113 110 105 99 94 91 94 102 108 112 109 101 90 81 82 87 86 79 75 80 78 76 78 77 79
146 149 156 152 150 147 144 142 141 139 138 137 133 133 131 129 125 121 120 118 114 107 101 96 98 108 116 120 118 110 94 82 90 94 97 88 79 87 84 79 78 81 81
146 149 157 155 154 152 150 148 146 146 145 142 140 140 139 138 133 127 125 122 118 114 109 107 108 116 127 133 131 125 105 92 95 106 111 111 102 98 91 83 80 83 84
146 150 158 159 159 159 158 156 154 153 151 148 148 148 148 146 141 136 132 128 123 120 118 117 119 124 132 138 138 130 110 100 109 120 128 129 120 105 95 90 89 91 90
150 155 161 164 166 167 167 166 163 161 158 157 156 157 156 154 150 145 140 136 133 130 128 127 130 134 138 141 141 136 109 91 131 138 138 133 125 112 103 93 92 100 101
154 158 162 167 171 175 175 174 172 170 167 166 166 165 164 161 158 154 150 148 147 146 145 144 146 148 148 147 147 140 103 75 122 146 141 136 134 124 118 109 100 102 109
158 163 165 168 170 173 176 181 180 178 176 175 173 172 172 169 165 164 161 162 163 165 167 167 169 171 170 167 167 166 74 73 120 143 126 147 139 131 125 118 109 105 111
166 172 172 174 176 174 176 187 185 183 182 181 179 180 175 169 168 168 174 177 178 180 185 191 194 199 205 227 251 274 56 89 119 122 139 154 148 143 134 127 119 110 110
178 183 183 182 181 178 184 181 179 182 180 178 177 180 168 170 182 183 190 189 188 191 199 209 218 224 231 280 295 313 57 128 134 144 173 169 167 160 149 140 130 122 119
184 185 187 187 185 183 186 175 179 177 175 179 181 180 172 177 192 195 190 199 198 199 204 225 241 256 256 262 280 302 360 145 151 161 181 179 178 175 165 160 157 156 158
184 191 189 189 187 189 186 180 181 180 182 186 190 187 182 186 198 194 191 195 196 198 200 213 227 251 261 255 255 243 193 166 161 163 192 184 182 183 179 177 177 179 188
189 194 192 191 189 188 184 182 184 187 190 193 192 194 191 190 195 191 193 196 205 207 205 210 214 230 247 254 243 204 172 164 170 176 189 188 182 189 190 189 186 185 191
203 203 194 193 190 185 184 185 185 190 192 192 195 196 194 192 190 189 194 198 210 214 211 209 212 218 224 210 186 155 153 162 175 177 179 187 189 191 197 199 194 192 196
4 336 228 203 194 189 188 188 185 189 190 195 198 197 195 193 191 192 198 202 208 213 213 207 210 201 188 177 157 148 152 165 173 179 176 183 195 205 209 204 194 193 199
16 3 345 250 212 203 197 192 187 189 190 196 197 197 199 200 194 194 200 204 202 202 203 188 174 161 172 162 158 170 166 164 176 183 178 185 189 200 210 197 183 189 192
19 13 7 359 335 234 213 202 196 191 192 195 193 195 201 203 195 187 193 195 189 185 186 185 162 149 154 161 175 180 195 192 187 181 186 192 193 191 198 200 185 183 185
21 15 12 5 360 336 262 211 206 203 198 195 193 195 196 196 190 180 179 179 172 164 166 167 149 136 143 155 137 108 260 255 229 191 195 185 191 192 194 200 188 190 187
20 15 11 5 359 354 336 248 212 208 199 193 194 187 185 182 178 171 167 166 163 160 162 153 138 133 131 133 98 40 347 329 274 236 195 176 191 195 187 195 197 195 191
13 8 5 358 349 345 324 274 239 221 206 186 176 164 166 169 172 173 162 160 158 149 148 149 141 138 143 138 129 114 343 332 318 306 209 186 196 190 190 199 197 200 194
8 3 358 351 346 342 333 311 281 128 94 116 146 162 141 153 170 165 165 159 161 158 163 163 155 151 161 176 150 148 161 220 290 318 309 228 191 188 196 195 197 199 199
360 357 354 351 350 347 343 335 276 194 187 184 166 163 134 126 151 159 160 161 161 161 163 167 162 157 154 173 186 177 163 158 164 296 319 322 237 211 207 202 197 196 195
354 354 352 352 355 353 352 349 343 154 162 142 138 137 129 122 115 113 153 156 155 161 169 171 163 166 163 167 174 165 157 160 159 163 260 304 326 273 230 214 196 192 192
351 353 353 355 357 357 0 4 10 36 87 123 133 141 141 134 130 136 145 154 157 165 174 174 170 174 178 174 177 175 170 169 186 178 206 237 265 287 272 233 211 198 190